Home   Weather   Bottrop   Past weeks

Flag for Germany Past Weather in Bottrop, North Rhine-Westphalia, Germany — Yesterday and Last 2 Weeks

Now
61 °F

Clear.


Feels Like: 61 °F
Forecast: 47 / 69 °F
Wind: 7 mph from Northwest

Location: Duesseldorf

Current Time: Sep 26, 2016 at 9:17:12 PM

Latest Report: Sep 26, 2016 at 8:20 PM


Visibility: 10 mi

Pressure: 30.24 "Hg

Humidity: 63%

Dew Point: 48 °F

Location of BottropLocation

Past Weather in Bottrop — Graph

°F

Bottrop Temperature Yesterday

Maximum temperature yesterday: 81 °F (at 3:20 PM)
Minimum temperature yesterday: 57 °F (at 5:20 AM)
Average temperature yesterday: 66 °F

High & Low Weather Summary for the Past Weeks

 TemperatureHumidityPressure
High90 °F (Sep 13, 2:20 PM)100% (Sep 12, 2:50 AM)30.30 "Hg (Sep 12, 2:50 AM)
Low46 °F (Sep 22, 3:20 AM)27% (Sep 14, 3:50 PM)29.77 "Hg (Sep 15, 4:20 PM)
Average65 °F70%30.05 "Hg
* Reported Sep 11 8:20 PM — Sep 26 8:20 PM, Bottrop, Weather by CustomWeather, © 2016

Note: Actual official high and low records may vary slightly from our data, if they occured in-between our weather recording intervals... More about our weather records

Advertising

Bottrop Weather History for the Previous 24 Hours

Scroll right to see more
 ConditionsComfort  
Time TempWeatherWind HumidityBarometerVisibility
8:20 PM
Mon, Sep 26
61 °FClear.7 mph63%30.24 "Hg10 mi
7:50 PM63 °FPassing clouds.5 mph56%30.21 "HgN/A
7:20 PM63 °FPassing clouds.6 mph56%30.21 "HgN/A
6:50 PM64 °FPartly sunny.6 mph56%30.21 "HgN/A
6:20 PM66 °FPartly sunny.5 mph52%30.21 "HgN/A
5:50 PM66 °FPartly sunny.7 mph49%30.21 "HgN/A
5:20 PM66 °FPartly sunny.6 mph52%30.21 "HgN/A
4:50 PM68 °FPartly sunny.6 mph49%30.21 "HgN/A
4:20 PM68 °FScattered clouds.6 mph49%30.21 "HgN/A
3:50 PM70 °FScattered clouds.3 mph46%30.21 "HgN/A
3:20 PM66 °FScattered clouds.3 mph49%30.21 "HgN/A
2:50 PM66 °FScattered clouds.2 mph52%30.21 "HgN/A
2:20 PM66 °FScattered clouds.2 mph56%30.21 "HgN/A
1:50 PM66 °FScattered clouds.3 mph56%30.21 "HgN/A
1:20 PM64 °FScattered clouds.2 mph64%30.21 "HgN/A
12:50 PM64 °FPassing clouds.3 mph64%30.24 "HgN/A
12:20 PM64 °FPassing clouds.6 mph64%30.24 "HgN/A
11:50 AM63 °FPassing clouds.3 mph68%30.24 "HgN/A
11:20 AM63 °FPassing clouds.3 mph68%30.24 "HgN/A
10:50 AM61 °FSunny.3 mph72%30.24 "Hg10 mi
10:20 AM59 °FPassing clouds.5 mph72%30.24 "HgN/A
9:50 AM57 °FSunny.5 mph77%30.24 "Hg10 mi
9:20 AM55 °FSunny.5 mph82%30.24 "Hg10 mi
8:50 AM54 °FSunny.6 mph88%30.24 "Hg10 mi
8:20 AM52 °FPassing clouds.3 mph88%30.21 "HgN/A
7:50 AM50 °FSunny.3 mph88%30.21 "Hg10 mi
7:20 AM50 °FClear.3 mph94%30.21 "Hg10 mi
6:50 AM50 °FClear.3 mph94%30.21 "Hg10 mi
6:20 AM52 °FClear.3 mph94%30.21 "Hg10 mi
5:50 AM54 °FClear.5 mph88%30.21 "Hg10 mi
5:20 AM54 °FClear.3 mph88%30.21 "Hg10 mi
4:50 AM57 °FClear.7 mph77%30.21 "Hg10 mi
4:20 AM57 °FPassing clouds.6 mph82%30.21 "HgN/A
3:50 AM59 °FCool.6 mph72%30.21 "HgN/A
3:20 AM61 °FClear.8 mph72%30.21 "Hg10 mi
2:50 AM61 °FPassing clouds.7 mph77%30.18 "HgN/A
2:20 AM61 °FClear.5 mph77%30.18 "Hg10 mi
1:50 AM59 °FClear.5 mph82%30.18 "Hg10 mi
1:20 AM59 °FClear.5 mph77%30.18 "Hg10 mi
12:50 AM59 °FClear.3 mph77%30.18 "Hg10 mi
12:20 AM59 °FClear.1 mph77%30.18 "Hg10 mi
11:50 PM
Sun, Sep 25
59 °FClear.2 mph77%30.18 "Hg10 mi
11:20 PM61 °FPassing clouds.6 mph72%30.15 "HgN/A
10:50 PM63 °FPassing clouds.5 mph68%30.15 "HgN/A
10:20 PM63 °FClear.6 mph68%30.15 "Hg10 mi
9:50 PM63 °FPassing clouds.6 mph64%30.15 "HgN/A
9:20 PM63 °FPassing clouds.7 mph64%30.12 "HgN/A
Weather by CustomWeather, © 2016

See weather overviewHow to use our weather pages